This is the latest recevied weather packets stored in our database for station/object K7D3. If no packets are shown the sender has not sent any weather packets the latest 10 day(s).
| Time | Temp. | Humidity | Pressure | Rain* | Wind** | Luminosity | Snow |
|---|---|---|---|---|---|---|---|
| 1777873465 | 10.56° C | 74% | - | 0 mm | 1.79 m/s, 262° | - | - |
| 1777872983 | 10.56° C | 74% | - | 0 mm | 2.24 m/s, 271° | - | - |
| 1777872504 | 11.11° C | 74% | - | 0 mm | 2.68 m/s, 245° | - | - |
| 1777872025 | 10.56° C | 72% | - | 0 mm | 0 m/s | - | - |
| 1777871542 | 11.11° C | 72% | - | 0 mm | 2.24 m/s, 294° | - | - |
| 1777871062 | 11.11° C | 71% | - | 0 mm | 0 m/s | - | - |
| 1777870583 | 11.11° C | 72% | - | 0 mm | 0.89 m/s, 273° | - | - |
| 1777870101 | 11.11° C | 71% | - | 0 mm | 2.68 m/s, 276° | - | - |
| 1777869622 | 11.67° C | 71% | - | 0 mm | 3.58 m/s, 253° | - | - |
| 1777869143 | 11.11° C | 70% | - | 0 mm | 2.68 m/s, 256° | - | - |
| 1777868661 | 11.11° C | 70% | - | 0 mm | 3.13 m/s, 264° | - | - |
| 1777868182 | 11.11° C | 70% | - | 0 mm | 2.68 m/s, 240° | - | - |
| 1777867703 | 11.11° C | 69% | - | 0 mm | 3.13 m/s, 253° | - | - |
| 1777867221 | 11.11° C | 70% | - | 0 mm | 2.68 m/s, 238° | - | - |
| 1777866742 | 11.11° C | 69% | - | 0 mm | 4.47 m/s, 232° | - | - |
| 1777866263 | 10.56° C | 69% | - | 0 mm | 2.68 m/s, 260° | - | - |
| 1777865781 | 11.11° C | 69% | - | 0 mm | 2.24 m/s, 203° | - | - |
| 1777865302 | 11.11° C | 67% | - | 0 mm | 3.58 m/s, 165° | - | - |
| 1777864823 | 12.22° C | 63% | - | 0 mm | 3.13 m/s, 153° | - | - |
| 1777864340 | 12.78° C | 61% | - | 0 mm | 2.68 m/s, 203° | - | - |
| 1777863861 | 12.78° C | 58% | - | 0 mm | 2.24 m/s, 208° | - | - |
| 1777863382 | 12.78° C | 58% | - | 0 mm | 4.02 m/s, 248° | - | - |
| 1777862900 | 12.22° C | 58% | - | 0 mm | 3.58 m/s, 245° | - | - |
| 1777862421 | 12.78° C | 58% | - | 0 mm | 3.58 m/s, 239° | - | - |
| 1777861942 | 13.33° C | 57% | - | 0 mm | 4.02 m/s, 250° | - | - |
* Rain latest hour (hover to see other rain measurements)
** Current wind speed in m/s (hover to see current wind gust speed)